Wind_Speed
19 19 19 23 22 21 22 23 22 22 22 22 22 22 22 24 25 25 23 23 21 19 16 12 10 8 2 0 6 7 21 28 27 20 16 6 5 5 3 1 1 3 2 8 10 8 7
19 19 18 22 19 20 22 22 23 24 24 24 24 24 25 25 26 26 25 22 21 17 13 10 6 3 1 2 3 3 25 33 25 19 7 7 5 6 3 2 2 2 5 12 11 8 10
19 21 21 21 20 21 23 23 24 24 25 25 25 26 27 28 26 27 24 22 19 16 9 7 3 1 2 9 4 15 26 22 17 11 4 5 6 2 3 2 3 3 7 8 9 6 3
18 20 21 20 21 23 24 24 25 25 26 26 28 28 28 29 28 28 24 21 18 12 5 3 3 2 6 2 4 12 24 14 16 9 2 6 5 5 3 2 4 5 6 4 5 3 2
20 20 20 20 21 22 24 25 26 27 27 29 30 29 30 29 28 25 23 18 10 1 5 5 3 2 7 5 5 10 18 8 14 11 5 4 4 3 4 4 3 8 3 3 3 6 5
20 21 20 21 23 24 26 27 27 27 28 29 30 28 30 27 24 26 18 4 8 9 7 4 2 2 4 4 3 7 16 7 4 5 2 4 5 3 3 4 3 5 4 2 3 1 4
20 21 22 24 25 25 27 28 28 29 30 31 31 32 31 27 24 21 5 3 3 2 1 7 4 3 3 7 1 4 10 10 4 6 4 1 5 5 3 3 3 7 6 6 3 4 1
21 22 23 25 26 27 28 29 29 30 32 33 32 34 31 25 24 8 4 4 4 1 6 8 6 6 6 2 4 1 19 6 4 4 5 5 6 7 8 7 9 5 6 2 2 2 3
21 23 24 26 27 28 28 29 30 32 34 34 35 35 28 24 12 2 3 4 9 4 2 7 5 5 5 10 6 6 9 5 6 6 7 7 5 7 7 7 6 3 5 5 2 4 3
21 23 25 28 28 28 28 29 31 34 36 35 38 33 26 21 1 8 2 6 11 10 4 5 3 7 5 6 3 9 11 6 2 8 6 4 4 7 8 6 6 4 7 7 4 1 3
21 23 25 27 28 29 29 31 33 36 38 37 40 29 25 13 8 2 3 11 2 3 2 2 3 3 0 8 6 6 6 5 9 7 7 7 5 11 9 3 6 2 8 6 7 2 2
21 23 25 26 27 29 30 32 34 37 39 39 37 29 22 4 4 4 8 7 2 5 3 2 5 5 4 2 1 4 5 5 4 5 2 5 4 6 3 7 6 12 6 7 5 3 2
22 23 24 26 27 29 31 34 37 39 41 43 32 24 8 5 2 2 9 3 4 3 4 4 2 3 3 3 1 2 6 6 7 6 5 2 2 3 7 8 5 4 5 3 4 3 5
22 22 24 26 28 29 31 34 38 40 42 44 30 9 3 4 3 3 2 5 2 0 3 3 3 2 6 5 2 3 5 4 1 6 4 6 2 8 5 6 8 5 6 5 4 2 4
22 22 24 26 27 29 31 34 38 41 42 39 24 6 3 4 8 0 5 3 5 3 4 5 4 3 1 2 5 3 4 6 7 8 7 5 5 1 4 4 4 5 3 5 6 2 2
22 22 23 26 26 29 31 35 38 41 40 32 14 7 6 3 9 3 4 4 3 3 5 1 0 2 3 1 3 6 7 2 6 10 4 7 4 1 3 5 6 3 9 3 3 2 5
22 21 23 24 26 28 30 33 36 40 38 24 5 3 11 4 3 5 3 6 4 5 4 3 4 2 2 3 4 4 8 4 6 1 4 6 4 2 5 6 10 2 1 5 5 4 4
21 21 22 23 25 27 30 32 35 39 36 17 4 2 9 0 4 1 3 3 4 4 7 5 2 5 3 3 2 2 4 1 8 2 8 7 6 4 10 4 6 1 6 6 5 5 2
21 20 21 22 24 26 28 31 33 36 28 9 2 2 5 2 2 2 4 3 3 7 6 7 6 5 6 4 3 4 5 1 9 5 2 4 2 2 6 6 2 5 5 4 6 3 6
21 19 20 21 22 25 27 29 32 34 22 6 2 2 4 4 1 4 2 2 3 7 4 3 4 3 5 6 7 3 6 3 7 4 5 6 3 8 10 8 5 6 6 6 7 4 5
20 19 19 19 21 23 25 28 31 32 18 5 4 1 3 2 3 3 2 2 2 4 5 8 6 5 2 4 4 4 5 6 3 9 6 4 3 3 5 6 7 7 9 13 9 8 7
19 18 17 18 19 21 22 25 29 31 15 6 2 2 3 1 2 0 3 1 1 3 3 3 5 5 4 4 1 1 3 2 3 7 6 4 3 2 4 6 10 4 10 17 16 2 7
17 17 15 16 16 18 20 22 25 27 16 7 5 2 3 2 2 2 2 2 2 2 3 5 2 4 4 2 4 7 6 6 5 4 3 3 2 3 4 5 5 5 14 13 10 6 7
16 16 15 14 14 15 17 18 20 21 20 6 5 1 3 3 1 1 1 2 2 3 0 2 4 3 3 6 6 4 5 8 6 11 7 2 2 2 3 2 5 8 7 18 20 14 14
15 15 15 13 13 13 14 15 16 17 16 10 7 2 2 1 2 3 0 1 2 3 1 1 2 1 4 4 2 4 3 4 5 9 10 13 4 1 3 3 5 5 5 10 8 13 13
14 15 14 12 11 12 12 12 13 14 14 8 10 7 3 2 3 2 1 1 2 0 4 2 3 4 3 2 2 6 5 5 4 0 3 6 3 2 3 4 6 7 4 13 6 12 6
15 15 14 12 11 11 11 11 11 12 13 12 3 7 2 1 3 3 3 3 3 2 1 3 5 5 3 2 2 4 4 3 4 5 5 4 3 11 3 4 7 8 6 6 10 9 12
16 13 13 12 11 10 10 10 9 10 11 11 2 7 3 1 5 4 4 4 2 2 3 3 2 2 2 2 3 3 3 3 2 4 5 6 7 5 3 5 8 2 3 7 6 10 6
16 12 13 12 11 10 10 10 8 7 7 9 3 5 7 3 5 5 10 14 13 12 5 1 3 3 4 3 1 1 2 2 0 4 4 3 4 3 8 6 4 5 3 4 7 8 8
Wind_Direction
12 6 4 356 0 2 1 0 360 358 357 355 353 351 348 345 341 340 335 333 329 326 322 319 327 331 338 315 254 314 176 167 164 168 185 172 168 178 211 177 117 168 202 119 123 110 113
8 3 359 356 0 2 0 359 357 355 353 350 349 346 342 341 338 336 330 327 323 319 315 312 320 331 16 242 343 180 169 166 172 177 198 192 217 193 99 163 154 354 79 113 126 138 153
3 355 350 356 360 359 358 357 356 354 351 348 345 341 339 337 336 333 328 321 316 306 297 289 296 113 85 235 29 174 171 172 172 195 187 230 170 94 137 112 332 356 102 133 134 143 109
354 354 357 360 360 358 357 355 354 352 348 345 342 339 336 334 332 332 324 321 307 293 260 239 160 140 240 253 291 188 187 188 199 195 266 141 104 106 43 258 25 52 57 91 136 140 198
352 359 2 2 358 358 357 355 353 349 346 343 340 339 336 335 333 332 327 319 307 123 131 131 106 110 267 295 240 205 194 164 202 211 241 139 80 78 34 63 22 44 52 61 114 11 174
358 0 2 0 357 356 355 354 350 348 345 343 344 343 339 337 338 332 339 23 104 107 109 95 59 42 275 234 237 183 182 149 138 138 103 55 54 71 75 82 181 159 219 232 179 319 356
1 1 359 357 355 353 351 350 348 347 347 347 348 345 342 339 338 329 15 129 15 15 213 195 201 255 283 312 257 176 156 155 101 80 145 67 75 226 236 131 193 143 181 186 158 120 38
359 358 357 353 352 350 349 348 348 348 348 348 349 346 341 338 333 332 46 101 115 207 309 237 224 277 270 47 338 22 148 137 119 150 124 54 218 218 117 111 119 120 146 208 310 104 136
357 355 353 351 350 350 351 350 348 348 349 349 348 344 340 338 335 62 330 126 332 174 148 294 188 197 223 145 205 243 147 143 134 127 209 164 220 145 126 137 135 192 196 204 76 137 188
352 352 352 351 353 352 352 351 349 349 349 349 347 344 339 340 99 338 249 332 336 169 51 271 250 266 152 150 236 209 178 138 112 160 202 224 245 159 145 180 150 209 195 122 125 120 213
350 350 350 351 352 353 352 351 350 350 348 347 344 342 333 328 294 244 314 329 1 119 54 154 195 157 66 165 153 211 181 56 158 154 126 235 154 150 161 204 162 112 86 110 101 100 336
351 347 350 351 351 352 352 351 350 348 347 346 341 339 323 304 232 241 329 333 107 47 256 67 133 152 144 284 158 131 128 76 154 118 66 209 101 128 162 44 106 129 83 49 60 85 323
349 350 352 353 353 352 351 350 350 349 347 345 338 332 297 194 233 185 342 54 53 139 341 340 72 158 142 165 105 111 139 150 151 144 180 5 102 51 104 81 14 81 81 9 1 0 230
350 351 352 353 352 352 351 351 351 349 347 343 340 338 305 207 134 309 49 55 158 182 312 340 22 91 169 153 178 64 92 143 85 107 125 153 227 164 183 172 178 154 144 148 206 224 277
348 348 350 352 352 352 352 352 352 349 348 343 344 336 326 354 214 326 73 85 208 207 288 313 335 108 112 109 142 116 146 186 199 176 148 122 263 162 146 129 115 182 151 165 106 40 359
345 346 348 351 351 352 353 353 354 351 348 345 338 338 16 26 124 81 78 228 248 232 326 240 249 129 135 133 114 147 173 199 207 190 160 203 140 332 124 105 49 156 149 95 17 206 270
344 345 347 349 351 351 353 355 356 353 349 350 359 52 359 144 350 49 159 221 274 268 16 335 358 51 94 127 128 159 194 38 344 39 102 139 117 166 121 208 169 136 173 63 117 141 203
343 344 346 348 351 352 354 355 358 357 352 356 2 72 5 331 50 34 148 212 307 333 9 9 87 13 30 64 114 99 127 59 323 228 147 202 142 166 207 201 173 197 164 154 135 196 211
342 343 346 349 351 353 355 355 359 0 358 350 41 274 5 136 131 315 308 307 27 9 18 1 34 30 20 53 101 56 3 327 7 66 96 181 192 74 348 350 75 207 162 130 101 75 184
339 341 345 348 351 352 355 357 359 360 359 7 61 8 335 49 41 117 13 358 23 2 52 47 18 52 53 30 12 70 5 321 333 2 20 136 126 167 209 212 159 182 183 180 128 133 174
336 340 343 346 350 353 356 358 360 1 359 11 28 202 173 311 7 41 32 350 9 26 13 22 22 46 80 52 23 33 357 323 344 353 18 82 144 238 259 246 179 190 181 182 190 193 181
333 336 340 344 348 353 358 359 2 4 7 65 76 47 2 131 305 10 8 338 94 349 33 13 84 20 61 109 174 235 27 302 285 333 13 351 165 195 262 254 192 227 212 188 210 147 276
328 335 336 340 345 351 356 1 5 11 21 55 23 30 100 333 18 108 216 168 115 285 71 72 144 129 100 171 270 244 234 261 262 343 305 22 37 47 260 327 132 260 211 192 212 194 157
323 332 333 336 341 347 354 359 5 15 23 45 31 17 66 278 36 174 31 9 52 2 133 60 63 114 192 347 287 246 253 248 236 251 206 291 33 115 248 4 206 242 215 195 207 216 200
317 323 327 330 336 342 351 357 3 9 21 48 29 49 91 295 239 291 294 7 1 337 35 63 46 323 343 327 25 341 320 305 232 217 204 204 143 254 180 230 278 266 198 177 170 250 208
318 314 321 323 330 337 344 351 357 4 12 25 35 31 94 99 256 18 89 28 201 331 349 343 315 331 40 114 124 199 212 216 258 314 6 147 88 157 139 180 222 243 300 208 86 257 240
314 306 319 318 324 331 338 343 348 355 0 8 47 15 81 122 264 180 196 175 141 110 149 295 321 355 37 123 166 184 233 242 212 194 184 129 155 211 200 226 282 252 274 113 160 239 242
314 304 317 315 316 322 330 335 341 344 352 2 46 41 48 166 271 212 216 168 130 131 156 253 36 341 35 126 168 219 203 245 287 251 193 169 154 182 147 196 248 320 39 133 282 316 343
316 301 315 312 311 317 321 323 325 329 339 337 317 331 331 191 244 245 239 240 239 216 161 218 194 191 206 96 236 100 256 301 220 232 321 247 197 202 186 204 218 21 320 6 342 326 329
Height
829 826 824 821 817 814 810 806 804 801 798 795 792 789 786 782 778 774 770 767 764 761 758 756 755 754 753 754 749 739 741 745 751 755 757 758 765 768 774 768 766 771 764 763 768 774 777
830 828 825 822 818 815 811 808 803 800 796 793 790 787 783 780 776 772 767 764 761 758 756 755 754 753 754 760 742 740 742 746 750 755 757 756 757 756 764 768 773 764 766 769 773 777 778
831 828 825 821 817 814 811 807 803 800 795 792 788 784 779 776 773 769 764 760 757 755 754 753 753 753 754 748 741 741 744 749 752 756 756 754 753 756 762 769 763 766 776 773 779 782 783
833 828 825 820 817 813 810 806 802 798 794 790 786 781 777 772 769 765 760 756 753 751 751 752 752 753 753 739 739 742 745 750 753 754 755 753 754 758 763 764 770 782 788 804 787 783 785
831 828 824 821 818 814 810 805 801 797 792 788 782 777 773 768 764 760 756 752 749 749 750 752 754 754 751 737 738 738 743 748 752 754 754 753 754 767 767 783 797 797 817 806 800 787 787
830 827 824 821 817 813 808 804 800 796 791 786 780 775 770 764 760 756 753 750 750 751 752 753 754 758 743 739 734 735 741 745 748 751 755 758 768 778 787 795 818 816 825 808 809 802 794
830 826 823 819 815 811 807 803 798 793 788 782 777 772 765 761 758 754 752 753 756 757 753 748 746 746 739 735 733 734 738 745 746 755 774 766 787 794 782 782 785 792 802 805 797 794 803
830 826 823 819 814 810 805 800 794 790 784 779 774 768 762 758 754 751 751 752 754 757 760 738 741 740 737 737 743 735 737 748 755 773 770 784 797 777 776 779 786 791 804 809 801 794 804
829 826 822 817 812 808 803 798 792 787 782 776 771 765 759 755 752 752 751 752 752 751 762 743 738 738 735 735 743 740 736 742 757 774 773 788 775 765 777 789 793 801 805 805 802 800 798
829 825 821 816 811 807 802 797 791 785 779 774 768 762 757 753 755 752 750 750 749 749 779 753 742 731 730 731 740 728 730 737 751 775 772 775 760 769 781 784 787 806 789 791 803 811 826
829 825 820 815 810 805 800 795 789 783 776 770 764 759 755 753 752 752 750 747 747 749 792 739 738 724 727 735 731 734 727 734 759 762 770 775 768 775 781 776 777 796 787 795 803 820 821
828 824 820 815 809 804 799 793 786 780 773 766 759 755 751 750 750 748 747 745 747 782 785 740 731 737 739 732 730 731 733 732 741 756 759 762 751 764 769 772 774 785 801 810 814 828 844
828 823 819 814 809 803 797 791 784 777 769 761 754 749 746 748 747 746 746 747 782 791 742 749 742 736 741 744 738 735 747 756 770 790 787 770 767 769 766 789 785 793 812 844 843 847 849
828 823 819 814 808 802 796 789 782 774 766 757 750 745 745 745 745 746 746 765 778 755 753 739 740 741 749 742 743 744 753 767 755 765 794 797 802 780 767 776 789 802 808 837 848 854 843
827 823 818 813 808 802 795 789 781 772 764 754 747 745 744 744 744 746 756 785 773 759 749 750 745 749 750 744 747 748 756 769 759 759 781 794 791 761 764 766 774 799 813 806 833 837 847
827 823 818 813 808 802 795 788 781 772 763 754 748 746 746 745 746 747 767 779 765 751 747 745 752 744 757 751 751 758 763 751 753 750 744 770 790 768 769 762 775 783 788 819 834 841 844
826 822 818 813 808 802 796 789 781 772 761 754 750 752 749 747 748 757 777 778 760 746 746 750 749 748 750 750 754 760 763 756 755 747 747 763 774 782 771 777 786 794 802 811 815 829 828
825 821 817 813 808 802 796 790 782 773 763 756 756 762 751 750 765 785 777 767 756 751 752 750 746 751 748 750 752 755 757 753 751 748 762 757 777 798 781 757 757 766 783 792 809 821 828
824 820 816 812 808 803 798 791 784 777 769 765 771 769 752 750 775 779 773 763 759 760 761 760 762 762 759 765 761 762 765 754 752 754 759 756 783 802 790 775 762 767 774 782 793 804 820
823 820 816 812 808 803 799 793 786 779 772 770 772 770 764 764 778 773 771 770 767 761 764 763 767 762 765 775 774 773 772 759 757 754 749 752 779 779 783 779 767 775 769 772 779 811 807
823 819 815 812 809 804 799 794 788 781 774 773 778 785 785 781 779 779 776 774 771 773 769 769 770 773 772 781 779 784 777 772 756 757 756 759 773 767 760 753 750 750 756 765 774 771 778
822 818 815 812 809 805 801 796 790 783 776 776 784 786 786 788 787 777 783 781 776 775 773 777 778 776 777 784 783 784 781 779 774 766 767 770 776 771 763 749 752 752 748 750 752 762 763
821 818 815 812 809 806 802 798 793 787 781 782 787 787 787 790 788 783 786 780 779 778 777 776 776 779 784 782 778 779 778 776 774 775 777 776 775 782 774 768 759 770 746 748 742 741 748
820 817 815 812 809 807 804 800 797 793 790 789 791 791 792 789 789 785 783 780 782 783 781 780 779 778 779 777 776 775 780 780 780 776 776 775 777 787 785 768 785 738 717 715 724 720 724
818 816 814 812 809 807 804 802 799 796 793 792 792 792 795 796 794 787 785 785 785 787 783 782 781 781 780 780 782 783 779 768 762 766 772 769 776 781 783 787 761 730 721 723 733 726 708
816 814 812 810 809 807 805 803 800 798 795 794 794 793 794 799 794 788 789 789 791 793 791 785 781 780 780 786 786 788 783 773 765 755 767 775 777 778 793 777 776 734 705 692 706 734 692
814 812 811 809 808 806 805 804 802 799 796 795 794 794 794 798 793 791 792 790 791 795 797 795 788 787 784 793 792 792 783 765 768 761 766 779 781 776 784 773 755 718 708 697 745 726 684
811 809 808 807 807 805 804 802 801 800 798 797 796 795 795 798 792 787 786 787 790 793 795 793 791 791 793 792 792 788 787 774 771 757 754 761 772 775 778 771 765 706 708 726 722 698 694
808 807 806 805 805 804 803 802 801 800 799 797 796 796 795 795 789 784 781 782 782 783 790 792 792 793 790 793 795 793 786 783 782 770 752 761 751 754 750 742 715 710 713 711 712 711 701